Tracking 35331 objects as of 14-Sep-2026
HD Live streaming from Space Station
objects crossing your sky now

FLOCK 4P 1


FLOCK 4P 1 is no longer on orbit
FLOCK 4P 1 is classified as:


NORAD ID: 44814
Int'l Code: 2019-081L
Launch date: November 27, 2019
Source: United States (US)
Launch site: SRIHARIKOTA (SRI)
Decay date: 2023-04-19
Your satellite tracking list
Your tracking list is empty




NASA's NSSDC Master Catalog

Two Line Element Set (TLE):
1 44814U 19081L   23108.93522054  .12072836  25505-5  13886-2 0  9993
2 44814  97.3374 182.0117 0008611 235.1837 124.8652 16.36827670188934
Source of the keplerian elements: AFSPC